Regional Weather Roundup
Issued by NWS

Home | Current Version | Previous Version | Text Only | Print | Product List | Glossary Off
Versions: 1 2 3 4 5 6 7 8 9 10 11 12 13 14 15 16 17 18 19 20 21 22 23 24 25 26 27 28 29 30 31 32 33 34 35 36 37 38 39 40 41 42 43 44 45 46 47 48 49 50

000
ASUS43 KDTX 020610
RWRMI
MICHIGAN HOURLY REGIONAL WEATHER ROUNDUP
NATIONAL WEATHER SERVICE DETROIT/PONTIAC MI
200 AM EDT SUN AUG 02 2015

NOTE: "FAIR" INDICATES FEW OR NO CLOUDS BELOW 12,000 FEET WITH NO
SIGNIFICANT WEATHER AND/OR OBSTRUCTION TO VISIBILITY.

MIZ047>049-052>055-059>063-066>070-074>076-081>083-020700-
SOUTHEAST LOWER MICHIGAN

CITY           SKY/WX    TMP DP  RH WIND       PRES   REMARKS
ADRIAN         CLEAR     62  58  86 CALM      29.91F
6HR MIN TEMP:  62; 6HR MAX TEMP:  77;

ALMA           CLEAR     58  54  87 CALM      29.87F
ANN ARBOR      MOCLDY    60  56  86 CALM      29.89F
BAD AXE        CLEAR     56  54  92 S3        29.87S
DETROIT CITY   CLEAR     69  53  56 W5        29.89S
6HR MIN TEMP:  69; 6HR MAX TEMP:  81;

DETROIT        PTCLDY    67  56  67 S5        29.90S
6HR MIN TEMP:  67; 6HR MAX TEMP:  80;

FLINT          CLEAR     60  52  74 CALM      29.88F
6HR MIN TEMP:  60; 6HR MAX TEMP:  79;

GROSSE ILE     MOCLDY    70  57  64 SW3       29.88F
HILLSDALE      CLEAR     64  61  90 CALM      29.92S
HOWELL         CLEAR     62  53  70 SW3       29.89F
6HR MIN TEMP:  62; 6HR MAX TEMP:  76;


CITY           SKY/WX    TMP DP  RH WIND       PRES   REMARKS
JACKSON        PTCLDY    64  58  80 SW5       29.90F
6HR MIN TEMP:  64; 6HR MAX TEMP:  75;

LAMBERTVILLE   MOCLDY    67  61  81 CALM      29.91F
6HR MIN TEMP:  66; 6HR MAX TEMP:  79;

LANSING        CLEAR     63  55  75 CALM      29.89F
6HR MIN TEMP:  62; 6HR MAX TEMP:  77;

LAPEER         NOT AVBL
MASON          CLEAR     58  54  85 CALM      29.90S
MONROE         PTCLDY    65  58  78 CALM      29.89F
MT. CLEMENS    CLEAR     67  51  57 W6        29.86F
6HR MIN TEMP:  67; 6HR MAX TEMP:  79;

PONTIAC        CLEAR     64  53  67 W6        29.88F
6HR MIN TEMP:  64; 6HR MAX TEMP:  77;

PORT HOPE        N/A     64  56  75 SW7       29.83S
6HR MIN TEMP:  62; 6HR MAX TEMP:  77;

PORT HURON     CLEAR     63  52  67 CALM      29.88S
TRI CITIES     CLEAR     64  53  67 SW8       29.86F
6HR MIN TEMP:  62; 6HR MAX TEMP:  78;

YPSILANTI      MOCLDY    66  56  70 SW6       29.90F
6HR MIN TEMP:  65; 6HR MAX TEMP:  82;

$$
MIZ043>046-050>051-056>058-064>065-071>073-077>080-020700-
SOUTHWEST LOWER MICHIGAN

CITY           SKY/WX    TMP DP  RH WIND       PRES   REMARKS
BATTLE CREEK   MOCLDY    66  60  81 CALM      29.90S
6HR MIN TEMP:  66; 6HR MAX TEMP:  77;

BENTON HARBOR  CLEAR     73  67  81 SW10      29.88S
6HR MIN TEMP:  66; 6HR MAX TEMP:  77;

BIG RAPIDS     CLEAR     58  55  88 CALM      29.86F
6HR MIN TEMP:  58; 6HR MAX TEMP:  75;

COLDWATER      PTCLDY    66  59  76 SW5       29.91S
6HR MIN TEMP:  63; 6HR MAX TEMP:  73;

HOLLAND        CLEAR     65  57  75 CALM      29.87F
6HR MIN TEMP:  63; 6HR MAX TEMP:  76;

GRAND RAPIDS   CLEAR     61  56  83 S3        29.87F
6HR MIN TEMP:  61; 6HR MAX TEMP:  78;

KALAMAZOO      CLEAR     68  57  68 S6        29.90S
6HR MIN TEMP:  66; 6HR MAX TEMP:  78;

MARSHALL       MOCLDY    64  60  85 CALM      29.90S
MUSKEGON       CLEAR     66  59  78 CALM      29.85F
6HR MIN TEMP:  66; 6HR MAX TEMP:  75; 6HR PCP: TRACE;

$$
MIZ016>042-020700-
NORTHERN LOWER MICHIGAN

CITY           SKY/WX    TMP DP  RH WIND       PRES   REMARKS
ALPENA         CLEAR     60  52  74 SW3       29.81S
6HR MIN TEMP:  57; 6HR MAX TEMP:  74;

BEAVER ISLAND  CLEAR     67  63  87 SW8       29.76F FOG
6HR MIN TEMP:  66; 6HR MAX TEMP:  72;

BELLAIRE       CLEAR     57  54  87 CALM      29.80F
6HR MIN TEMP:  57; 6HR MAX TEMP:  76;

CADILLAC       CLEAR     60  54  82 S3        29.85F
CHARLEVOIX     CLEAR     66  56  71 S7        29.81F
FRANKFORT      CLEAR     69  62  78 SW5       29.81S
GAYLORD        CLEAR     63  52  67 SW7       29.83S
6HR MIN TEMP:  61; 6HR MAX TEMP:  73;

GRAYLING       CLEAR     53  49  84 CALM      29.84S
6HR MIN TEMP:  53; 6HR MAX TEMP:  74;

HARBOR SPRINGS CLEAR     64  56  76 CALM      29.78F
HOUGHTON LAKE  CLEAR     66  55  67 SW8       29.85F
6HR MIN TEMP:  65; 6HR MAX TEMP:  75;

MANISTEE       CLEAR     57  54  88 CALM      29.83S
OSCODA         CLEAR     59  53  79 SW8       29.82S
PELLSTON       CLEAR     61  54  77 CALM      29.78F
6HR MIN TEMP:  58; 6HR MAX TEMP:  74;

TRAVERSE CITY  CLEAR     67  52  58 SW3       29.79S
6HR MIN TEMP:  67; 6HR MAX TEMP:  78;

$$
MIZ007>008-015-020700-
EASTERN UPPER MICHIGAN

CITY           SKY/WX    TMP DP  RH WIND       PRES   REMARKS
KINROSS        MOCLDY    61  59  94 S6        29.75F
6HR MIN TEMP:  61; 6HR MAX TEMP:  70;

MACKINAC ISLAN   N/A     66  61  82 S7        29.76F
NEWBERRY       PTCLDY    60  58  93 SW8       29.73F
6HR MIN TEMP:  58; 6HR MAX TEMP:  71;

S. S. MARIE    CLOUDY    60  56  86 CALM      29.73F
6HR MIN TEMP:  60; 6HR MAX TEMP:  70;

$$
MIZ004>006-011>014-085-020700-
CENTRAL UPPER MICHIGAN

CITY           SKY/WX    TMP DP  RH WIND       PRES   REMARKS
MANISTIQUE     CLEAR     61  55  82 S5        29.74F
ESCANABA       CLEAR     61  54  77 W5        29.74F
6HR MIN TEMP:  57; 6HR MAX TEMP:  79;

MENOMINEE      CLEAR     66  52  59 SW6       29.77F
6HR MIN TEMP:  66; 6HR MAX TEMP:  79;

SAWYER-GWINN   CLEAR     64  52  66 W10       29.74F
6HR MIN TEMP:  60; 6HR MAX TEMP:  76;

$$
MIZ001>003-009>011-084-020700-
WESTERN UPPER MICHIGAN

CITY           SKY/WX    TMP DP  RH WIND       PRES   REMARKS
IRON MOUNTAIN  CLEAR     60  53  77 CALM      29.76F
6HR MIN TEMP:  59; 6HR MAX TEMP:  77;

HOUGHTON       PTCLDY    70  53  54 W14       29.67F
6HR MIN TEMP:  68; 6HR MAX TEMP:  73;

COPPER HARBOR    N/A     72  52  49 VRB6      29.64F
6HR MIN TEMP:  70; 6HR MAX TEMP:  74;

IRONWOOD       PTCLDY    66  55  68 SW9       29.70F
6HR MIN TEMP:  66; 6HR MAX TEMP:  77;

$$

ABBREVIATIONS USED IN REMARKS
   TC - TEMPERATURE IN CELSIUS
  WCI - WIND CHILL INDEX
   HX - HEAT INDEX
  VSB - VISIBILITY




USA.gov is the U.S. government's official web portal to all federal, state and local government web resources and services.